Regional Weather Roundup
Issued by NWS

Home | Current Version | Previous Version | Text Only | Print | Product List | Glossary Off
Versions: 1 2 3 4 5 6 7 8 9 10 11 12 13 14 15 16 17 18 19 20 21 22 23 24 25 26 27 28 29 30 31 32 33 34 35 36 37 38 39 40 41 42 43 44 45 46 47 48 49 50

000
ASUS45 KBOU 220107
RWRCO

WEATHER ROUNDUP FOR COLORADO
NATIONAL WEATHER SERVICE DENVER/BOULDER CO
700 PM MDT THU AUG 21 2014

NOTE: "FAIR" INDICATES FEW OR NO CLOUDS BELOW 12000 FEET WITH NO
SIGNIFICANT WEATHER AND/OR OBSTRUCTIONS TO VISIBILITY.

COZ001>005-013-030-031-220200-
...NORTHWEST COLORADO...

CITY           SKY/WX    TMP DP  RH WIND       PRES   REMARKS
CRAIG          PTSUNNY   73  45  36 NW14      30.19R
HAYDEN         MOCLDY    72  39  30 W9G16     30.21S
MEEKER         PTSUNNY   73  46  38 CALM      30.19S
MOUNT WERNER   NOT AVBL
STEAMBOAT SPGS MOCLDY    69  44  39 W5        30.23S
WALDEN         MOCLDY    63  36  36 SW13      30.31S
$$

COZ006>008-011-220200-
...WEST CENTRAL VALLEYS...

CITY           SKY/WX    TMP DP  RH WIND       PRES   REMARKS
GRAND JUNCTION CLOUDY    77  43  29 W3        30.08S
MONTROSE       CLOUDY    76  44  32 SE3       30.17R
EAGLE          MOCLDY    72  43  35 SW5       30.22F
RIFLE          CLOUDY    76  35  22 W8        30.13S
DELTA          CLOUDY    82  38  21 W6        30.11S
NUCLA          CLOUDY    77  36  22 CALM      30.19S
$$

COZ017>023-064>068-220200-
...SOUTHWEST COLORADO...

CITY           SKY/WX    TMP DP  RH WIND       PRES   REMARKS
DURANGO        CLOUDY    74  40  29 NW9       30.18S
CORTEZ         PTSUNNY   76  34  21 W8        30.16S
PAGOSA SPRINGS CLOUDY    73  33  22 CALM      30.25F
TELLURIDE      CLOUDY    57  43  58 S5        30.39S
WOLF CREEK PAS NOT AVBL
$$

COZ009-010-012-014-032>034-037-058>063-220200-
...CENTRAL COLORADO...

CITY           SKY/WX    TMP DP  RH WIND       PRES   REMARKS
ASPEN          CLOUDY    68  39  34 W3        30.29R
BUENA VISTA    CLOUDY    69  33  26 NW10      30.27R
COPPER MTN     CLOUDY    46  34  61 W15       30.60S
BERTHOUD PASS  CLOUDY    41  37  87 NW5       30.64F
COTTONWOOD PAS CLOUDY    64  28  25 W13       30.42S
GUNNISON       CLOUDY    66  37  34 SW12G20   30.30S
KREMMLING      CLOUDY    70  34  26 W5        30.28S
LEADVILLE      CLOUDY    54  37  52 N12       30.44R
MONARCH PASS   LGT RAIN  50  30  46 W12G17    30.69S
SALIDA         CLOUDY    74  31  20 W12G17    30.30S
SUNLIGHT       CLOUDY    54  43  66 CALM      30.52S
WILKERSON PASS CLOUDY    54  37  54 NE5       30.56S
$$

COZ069>075-220200-
...SAN LUIS VALLEY/SANGRE DE CRISTO MOUNTAINS...

CITY           SKY/WX    TMP DP  RH WIND       PRES   REMARKS
ALAMOSA        MOCLDY    76  37  24 CALM      30.21S
LA VETA PASS   NOT AVBL
SAGUACHE       MOCLDY    68  37  32 NW14      30.27S
$$

COZ035-036-038>040-220200-
...NORTHERN COLORADO FRONT RANGE...

CITY           SKY/WX    TMP DP  RH WIND       PRES   REMARKS
DENVER INTL AP MOCLDY    78  52  40 N3        30.09R
DMNS CITY PARK   N/A     76  42  29 NW7G16    30.10R
AURORA         TSTM      69  56  63 SE20G28   30.14R
FRONT RANGE AP TSTM      82  50  32 S6        30.10R
ERIE MUNI ARPT MOCLDY    75  43  31 NW9G20    30.09S
BOULDER MUN AP DRIZZLE   72  50  46 W10G20    30.10F
CENTENNIAL     MOCLDY    70  49  47 SE13      30.15R
BROOMFIELD     MOCLDY    75  43  31 W22G30    30.13R
FORT COLLINS   MOCLDY    73  52  46 W21       30.13R THUNDER
LONGMONT       RAIN      69  58  69 NW6       30.14R
$$

COZ041-046-047-076>085-087-088-220200-
...PIKES PEAK/PALMER DIVIDE AND SOUTHERN FOOTHILLS...

CITY           SKY/WX    TMP DP  RH WIND       PRES   REMARKS
COLO. SPRINGS  PTCLDY    79  42  26 E8        30.14R
A. F. ACADEMY  MOCLDY    75  40  29 SE9       30.16R
ELLICOTT       PTCLDY    78  49  35 SE7       30.13R
FALCON         PTCLDY    76  43  30 CALM      30.20S
FORT CARSON    NOT AVBL
LIMON          MOCLDY    80  46  30 E10       30.08S
MONUMENT HILL  MOCLDY    68  46  45 N8        30.22R
TRINIDAD       NOT AVBL
$$

COZ042>045-048>051-090-091-220200-
...NORTHEAST COLORADO...

CITY           SKY/WX    TMP DP  RH WIND       PRES   REMARKS
GREELEY ARPT   MOCLDY    79  48  34 N7        30.06R
AKRON          MOCLDY    82  47  29 CALM      30.05S
BURLINGTON     CLEAR     84  47  27 E5        30.01S
WRAY             N/A     86  47  26 NE6       29.98S
STERLING       MOCLDY    84  54  34 SE3       30.00R
HOLYOKE        NOT AVBL
FORT MORGAN    MOCLDY    79  48  34 E7        30.04S
$$

COZ086-089-092>099-220200-
...SOUTHEAST COLORADO...

CITY           SKY/WX    TMP DP  RH WIND       PRES   REMARKS
PUEBLO         PTCLDY    88  39  17 SE12      29.99S
LA JUNTA       PTCLDY    87  54  32 E8        29.98S
LAMAR          PTCLDY    90  51  26 E7        29.93S
SPRINGFIELD      N/A     85  53  33 NE5       30.00S
$$



USA.gov is the U.S. government's official web portal to all federal, state and local government web resources and services.